TimeCST,TemperatureF,Dew PointF,Humidity,Sea Level PressureIn,VisibilityMPH,Wind Direction,Wind SpeedMPH,Gust SpeedMPH,PrecipitationIn,Events,Conditions,WindDirDegrees,DateUTC
12:15 AM,26.6,24.8,93,29.72,0.5,North,10.4,-,N/A,Snow,Light Snow,10,2013-12-22 06:15:00
12:35 AM,26.6,24.8,93,29.73,0.5,North,5.8,13.8,N/A,Snow,Light Snow,10,2013-12-22 06:35:00
12:55 AM,26.6,24.8,93,29.74,0.2,North,8.1,-,0.01,Snow,Snow,350,2013-12-22 06:55:00
1:15 AM,26.6,24.8,93,29.75,0.5,NNW,8.1,-,N/A,Snow,Light Snow,330,2013-12-22 07:15:00
1:35 AM,26.6,24.8,93,29.75,0.5,NNW,9.2,-,N/A,Snow,Light Snow,340,2013-12-22 07:35:00
1:55 AM,26.6,24.8,93,29.75,0.2,NNW,11.5,-,0.01,Snow,Snow,340,2013-12-22 07:55:00
2:15 AM,26.6,24.8,93,29.75,0.5,NNW,11.5,-,N/A,Snow,Light Snow,330,2013-12-22 08:15:00
2:35 AM,26.6,24.8,93,29.75,0.8,NNW,12.7,-,N/A,Snow,Light Snow,340,2013-12-22 08:35:00
2:55 AM,26.6,24.8,93,29.75,0.5,NNW,12.7,-,N/A,Snow,Light Snow,340,2013-12-22 08:55:00
3:15 AM,26.6,24.8,93,29.75,0.8,NNW,15.0,-,N/A,Snow,Light Snow,340,2013-12-22 09:15:00
3:35 AM,26.6,23.0,86,29.75,0.2,North,15.0,-,N/A,Snow,Snow,350,2013-12-22 09:35:00
3:55 AM,26.6,23.0,86,29.76,0.5,North,13.8,21.9,0.01,Snow,Light Snow,350,2013-12-22 09:55:00
4:15 AM,26.6,23.0,86,29.77,0.5,North,16.1,26.5,N/A,Snow,Light Snow,350,2013-12-22 10:15:00
4:35 AM,24.8,23.0,93,29.79,0.5,North,16.1,-,N/A,Snow,Light Snow,350,2013-12-22 10:35:00
4:55 AM,24.8,23.0,93,29.80,0.8,North,13.8,20.7,N/A,Snow,Light Snow,350,2013-12-22 10:55:00
5:15 AM,24.8,23.0,93,29.81,0.8,North,12.7,-,N/A,Snow,Light Snow,350,2013-12-22 11:15:00
5:35 AM,24.8,21.2,86,29.82,0.8,NNW,15.0,-,N/A,Snow,Light Snow,340,2013-12-22 11:35:00
5:55 AM,24.8,21.2,86,29.83,0.8,North,11.5,21.9,N/A,Snow,Light Snow,350,2013-12-22 11:55:00
6:15 AM,24.8,21.2,86,29.84,0.8,NNW,12.7,-,N/A,Snow,Light Snow,340,2013-12-22 12:15:00
6:35 AM,24.8,21.2,86,29.85,0.8,NNW,15.0,-,N/A,Snow,Light Snow,340,2013-12-22 12:35:00
6:55 AM,23.0,21.2,93,29.85,-9999.0,North,15.0,-,N/A,Snow,Light Snow,350,2013-12-22 12:55:00
7:15 AM,23.0,19.4,86,29.87,3.0,NNW,13.8,-,N/A,Snow,Light Snow,330,2013-12-22 13:15:00
7:35 AM,23.0,19.4,86,29.89,4.0,NNW,10.4,-,N/A,Snow,Light Snow,330,2013-12-22 13:35:00
7:55 AM,23.0,19.4,86,29.89,7.0,NNW,13.8,-,N/A,Snow,Light Snow,340,2013-12-22 13:55:00
8:15 AM,23.0,19.4,86,29.92,10.0,NNW,15.0,20.7,N/A,Snow,Light Snow,330,2013-12-22 14:15:00
8:35 AM,23.0,17.6,80,29.92,10.0,NNW,16.1,23.0,N/A,Snow,Light Snow,340,2013-12-22 14:35:00
8:55 AM,23.0,17.6,80,29.92,7.0,NNW,15.0,-,N/A,Snow,Light Snow,340,2013-12-22 14:55:00
9:15 AM,21.2,17.6,86,29.94,7.0,NNW,21.9,-,N/A,Snow,Light Snow,340,2013-12-22 15:15:00
9:35 AM,21.2,15.8,80,29.96,8.0,NNW,19.6,-,N/A,Rain,Freezing Rain,340,2013-12-22 15:35:00
9:55 AM,21.2,15.8,80,29.97,8.0,NW,19.6,-,N/A,Rain,Freezing Rain,320,2013-12-22 15:55:00
10:15 AM,19.4,14.0,80,29.98,7.0,NNW,19.6,-,N/A,Rain,Freezing Rain,330,2013-12-22 16:15:00
10:35 AM,19.4,14.0,80,29.99,7.0,NNW,16.1,24.2,N/A,Rain,Freezing Rain,330,2013-12-22 16:35:00
10:55 AM,19.4,14.0,80,30.00,7.0,NNW,15.0,21.9,N/A,Snow,Light Snow,330,2013-12-22 16:55:00
11:15 AM,19.4,14.0,80,30.01,8.0,NNW,16.1,-,N/A,Rain,Freezing Rain,330,2013-12-22 17:15:00
11:35 AM,19.4,14.0,80,30.01,5.0,NW,13.8,-,N/A,Snow,Light Snow,320,2013-12-22 17:35:00
11:55 AM,19.4,14.0,80,30.02,7.0,NW,18.4,-,N/A,Snow,Light Snow,310,2013-12-22 17:55:00
12:15 PM,19.4,14.0,80,30.02,9.0,NW,18.4,-,N/A,Snow,Light Snow,310,2013-12-22 18:15:00
12:35 PM,21.2,14.0,74,30.02,10.0,NW,18.4,-,N/A,Rain,Freezing Rain,320,2013-12-22 18:35:00
12:55 PM,21.2,14.0,74,30.02,10.0,NW,16.1,-,N/A,Rain,Freezing Rain,310,2013-12-22 18:55:00
1:15 PM,21.2,14.0,74,30.02,10.0,NW,19.6,-,N/A,Rain,Freezing Rain,310,2013-12-22 19:15:00
1:35 PM,19.4,14.0,80,30.03,9.0,NW,19.6,-,N/A,Rain,Freezing Rain,310,2013-12-22 19:35:00
1:55 PM,19.4,12.2,74,30.04,10.0,NW,19.6,-,N/A,,Freezing Rain,310,2013-12-22 19:55:00
2:15 PM,19.4,12.2,74,30.05,10.0,NW,21.9,-,N/A,,Freezing Rain,310,2013-12-22 20:15:00
2:35 PM,17.6,10.4,73,30.07,10.0,NW,17.3,-,N/A,,Freezing Rain,310,2013-12-22 20:35:00
2:55 PM,17.6,10.4,73,30.07,10.0,NW,15.0,-,N/A,,Freezing Rain,310,2013-12-22 20:55:00
3:15 PM,17.6,10.4,73,30.08,9.0,NW,16.1,-,N/A,,Freezing Rain,310,2013-12-22 21:15:00
3:35 PM,17.6,10.4,73,30.09,10.0,NW,13.8,-,N/A,,Freezing Rain,310,2013-12-22 21:35:00
3:55 PM,15.8,10.4,79,30.11,10.0,NW,15.0,-,N/A,Rain,Freezing Rain,310,2013-12-22 21:55:00
4:15 PM,17.6,10.4,73,30.12,10.0,NW,18.4,-,N/A,,Freezing Rain,310,2013-12-22 22:15:00
4:35 PM,17.6,10.4,73,30.12,10.0,NW,16.1,-,N/A,Rain,Freezing Rain,310,2013-12-22 22:35:00
4:55 PM,17.6,10.4,73,30.14,10.0,WNW,13.8,-,N/A,Rain,Freezing Rain,300,2013-12-22 22:55:00
5:15 PM,17.6,10.4,73,30.14,10.0,WNW,12.7,-,N/A,Rain,Freezing Rain,300,2013-12-22 23:15:00
5:35 PM,17.6,10.4,73,30.14,10.0,West,12.7,-,N/A,Rain,Freezing Rain,280,2013-12-22 23:35:00
5:55 PM,17.6,12.2,79,30.15,10.0,West,10.4,-,N/A,Rain,Freezing Rain,280,2013-12-22 23:55:00
6:15 PM,17.6,12.2,79,30.16,10.0,WNW,11.5,-,N/A,,Freezing Rain,290,2013-12-23 00:15:00
6:35 PM,17.6,10.4,73,30.17,10.0,WNW,11.5,17.3,N/A,,Freezing Rain,290,2013-12-23 00:35:00
6:55 PM,17.6,10.4,73,30.18,10.0,WNW,11.5,-,N/A,,Freezing Rain,300,2013-12-23 00:55:00
7:15 PM,17.6,10.4,73,30.18,10.0,WNW,10.4,-,N/A,,Overcast,300,2013-12-23 01:15:00
7:35 PM,17.6,10.4,73,30.19,10.0,NW,15.0,-,N/A,,Overcast,310,2013-12-23 01:35:00
7:55 PM,17.6,10.4,73,30.20,10.0,WNW,12.7,-,N/A,,Overcast,300,2013-12-23 01:55:00
8:15 PM,17.6,10.4,73,30.20,10.0,NW,13.8,-,N/A,,Overcast,320,2013-12-23 02:15:00
8:35 PM,17.6,10.4,73,30.20,10.0,NW,13.8,19.6,N/A,,Overcast,310,2013-12-23 02:35:00
8:55 PM,17.6,8.6,68,30.21,10.0,WNW,15.0,-,N/A,,Overcast,300,2013-12-23 02:55:00
9:15 PM,15.8,8.6,73,30.23,10.0,NW,16.1,23.0,N/A,,Overcast,310,2013-12-23 03:15:00
9:35 PM,15.8,8.6,73,30.24,10.0,WNW,15.0,-,N/A,,Overcast,300,2013-12-23 03:35:00
9:55 PM,14.0,6.8,73,30.26,10.0,WNW,15.0,-,N/A,,Mostly Cloudy,300,2013-12-23 03:55:00
10:15 PM,12.2,5.0,73,30.26,10.0,NW,16.1,-,N/A,,Scattered Clouds,310,2013-12-23 04:15:00
10:35 PM,10.4,3.2,73,30.27,10.0,WNW,8.1,18.4,N/A,,Partly Cloudy,300,2013-12-23 04:35:00
10:55 PM,8.6,1.4,73,30.29,10.0,NW,13.8,-,N/A,,Partly Cloudy,310,2013-12-23 04:55:00
11:15 PM,8.6,1.4,73,30.30,10.0,NW,11.5,-,N/A,,Clear,310,2013-12-23 05:15:00
11:35 PM,8.6,-0.4,67,30.30,10.0,WNW,9.2,-,N/A,,Clear,300,2013-12-23 05:35:00
11:55 PM,6.8,-0.4,72,30.31,10.0,NW,12.7,-,N/A,,Clear,310,2013-12-23 05:55:00